This demonstration page uses our WeatherBlox Daily Observations layout. Learn more.

Left ArrowRight Arrow

36.17497, -115.13722

Hourly Observations for March 28, 2016

Temp ( °F °C ) Dew Point ( °F °C ) Humidity (%) Winds ( mph kmh ) Pressure ( in mb ) Visibility ( mi km ) Precip ( " mm )
12:53 am 00:53 Clear 58 14.4 19 -7.2 22 22 ENE 6 9 29.81 1010 10 16.0934 0 0
1:53 am 01:53 Clear 63 17.2 29 -1.7 28 28 SSE 7 11 29.78 1008 10 16.0934 0 0
2:53 am 02:53 Clear 64 17.8 31 -0.6 29 29 SE 9 15 29.74 1007 10 16.0934 0 0
3:53 am 03:53 Clear 65 18.3 31 -0.6 28 28 S 14 22 29.71 1006 10 16.0934 0 0
4:53 am 04:53 Clear 64 17.8 32 0 30 30 S 13 20 29.69 1006 10 16.0934 0 0
5:53 am 05:53 Clear 63 17.2 35 1.7 35 35 SSW 24 39 29.66 1005 10 16.0934 0 0
6:53 am 06:53 Sunny 63 17.2 35 1.7 35 35 SSW 21 33 29.66 1004 10 16.0934 0 0
7:53 am 07:53 Sunny 63 17.2 35 1.7 35 35 SSW 23 37 29.64 1004 10 16.0934 0 0
8:53 am 08:53 Sunny 63 17.2 37 2.8 38 38 SSW 21 33 29.64 1004 10 16.0934 0 0
9:53 am 09:53 Sunny 66 18.9 38 3.3 36 36 SW 18 30 29.63 1003 10 16.0934 0 0
10:53 am 10:53 Sunny 68 20 38 3.3 33 33 SSW 21 33 29.62 1003 10 16.0934 0 0
11:53 am 11:53 Sunny 69 20.6 35 1.7 29 29 SW 25 41 29.59 1002 10 16.0934 0 0
12:53 pm 12:53 Sunny 70 21.1 33 0.6 26 26 SSW 30 48 29.55 1001 10 16.0934 0 0
1:53 pm 13:53 Sunny 73 22.8 29 -1.7 19 19 SW 31 50 29.49 999 10 16.0934 0 0
2:53 pm 14:53 Mostly Cloudy 70 21.1 29 -1.7 22 22 SW 29 46 29.48 998 10 16.0934 0 0
3:38 pm 15:38 Cloudy 72 22 25 -4 17 17 WSW 22 35 29.38 995 10 16.0934 0 0
3:53 pm 15:53 Mostly Cloudy 71 21.7 25 -3.9 18 18 WSW 23 37 29.47 998 10 16.0934 0 0
4:53 pm 16:53 Mostly Sunny 68 20 26 -3.3 21 21 WSW 31 50 29.46 998 10 16.0934 0 0
5:53 pm 17:53 Mostly Sunny 61 16.1 27 -2.8 27 27 W 35 56 29.52 1000 10 16.0934 0 0
6:53 pm 18:53 Mostly Cloudy 60 15.6 22 -5.6 23 23 WSW 29 46 29.54 1000 10 16.0934 0 0
7:53 pm 19:53 Partly Cloudy 58 14.4 18 -7.8 21 21 W 22 35 29.56 1001 10 16.0934 0 0.0254
8:53 pm 20:53 Clear 55 12.8 15 -9.4 20 20 W 21 33 29.6 1002 10 16.0934 0 0
9:53 pm 21:53 Clear 53 11.7 21 -6.1 28 28 W 12 19 29.62 1003 10 16.0934 0 0
10:53 pm 22:53 Cloudy 52 11.1 21 -6.1 30 30 SW 9 15 29.62 1003 10 16.0934 0 0
11:53 pm 23:53 Clear 50 10 26 -3.3 39 39 WNW 10 17 29.6 1003 10 16.0934 0 0

Powered by AerisWeather